This demonstration page uses our WeatherBlox Daily Observations layout. Learn more.

Left ArrowRight Arrow

39.08367, -84.50855

Hourly Observations for April 15, 2019

Temp ( °F °C ) Dew Point ( °F °C ) Humidity (%) Winds ( mph kmh ) Pressure ( in mb ) Visibility ( mi km ) Precip ( " mm )
12:07 am 00:07 Cloudy with Light Rain 41 5 33 0.6 73 73 W 24 39 29.73 1007 10 16.0934 0 0.0254
12:53 am 00:53 Cloudy with Light Rain 39 3.9 32 0 76 76 W 20 31 29.74 1007 10 16.0934 0 0.0254
1:53 am 01:53 Cloudy 38 3.3 32 0 79 79 W 15 24 29.78 1009 10 16.0934 0 0.0254
2:48 am 02:48 Cloudy 39 4 30 -1 70 70 W 21 33 29.82 1010 10 16.0934 0 0.0254
2:53 am 02:53 Cloudy 39 3.9 31 -0.6 73 73 W 16 26 29.8 1009 10 16.0934 0 0.0254
3:53 am 03:53 Cloudy 39 3.9 30 -1.1 70 70 W 21 33 29.82 1010 10 16.0934 0 0
4:53 am 04:53 Cloudy 39 3.9 30 -1.1 70 70 WSW 16 26 29.84 1011 10 16.0934 0 0
5:53 am 05:53 Cloudy 39 3.9 30 -1.1 70 70 W 10 17 29.87 1012 10 16.0934 0 0
6:28 am 06:28 Cloudy 39 3.9 30 -1.1 70 70 WSW 14 22 29.91 1013 10 16.0934 0 0
6:53 am 06:53 Cloudy 39 3.9 30 -1.1 70 70 W 14 22 29.91 1013 10 16.0934 0 0
7:04 am 07:04 Cloudy 39 3.9 30 -1.1 70 70 W 15 24 29.94 1014 10 16.0934 0 0
7:53 am 07:53 Cloudy 38 3.3 29 -1.7 70 70 W 20 31 29.97 1015 10 16.0934 0 0
8:53 am 08:53 Cloudy with Light Rain 38 3.3 30 -1.1 73 73 W 10 17 30.01 1016 10 16.0934 0 0.0254
9:28 am 09:28 Cloudy 39 3.9 32 0 76 76 W 13 20 30.05 1018 10 16.0934 0 0.0254
9:53 am 09:53 Cloudy 40 4.4 31 -0.6 70 70 W 12 19 30.04 1017 10 16.0934 0 0.0254
10:08 am 10:08 Cloudy 39 3.9 31 -0.6 73 73 W 9 15 30.07 1018 10 16.0934 0 0
10:53 am 10:53 Cloudy 41 5 30 -1.1 65 65 WNW 9 15 30.08 1019 10 16.0934 0 0
11:11 am 11:11 Cloudy 43 6.1 31 -0.6 63 63 W 9 15 30.09 1019 10 16.0934 0 0
11:53 am 11:53 Cloudy 43 6.1 31 -0.6 63 63 W 15 24 30.1 1019 10 16.0934 0 0
12:53 pm 12:53 Mostly Cloudy 47 8.3 32 0 56 56 W 12 19 30.1 1019 10 16.0934 0 0
1:53 pm 13:53 Cloudy 48 8.9 34 1.1 58 58 WSW 9 15 30.11 1020 10 16.0934 0 0
2:53 pm 14:53 Mostly Cloudy 50 10 33 0.6 52 52 W 8 13 30.12 1020 10 16.0934 0 0
3:53 pm 15:53 Partly Cloudy 52 11.1 34 1.1 50 50 W 9 15 30.11 1020 10 16.0934 0 0
4:53 pm 16:53 Mostly Cloudy 54 12.2 35 1.7 49 49 W 7 11 30.11 1020 10 16.0934 0 0
5:53 pm 17:53 Sunny 54 12.2 34 1.1 47 47 SW 7 11 30.11 1020 10 16.0934 0 0
6:53 pm 18:53 Mostly Sunny 53 11.7 34 1.1 48 48 WSW 7 11 30.12 1020 10 16.0934 0 0
7:53 pm 19:53 Sunny 50 10 33 0.6 52 52 WSW 12 19 30.14 1021 10 16.0934 0 0
8:53 pm 20:53 Clear 44 6.7 35 1.7 71 71 S 7 11 30.15 1021 10 16.0934 0 0
9:53 pm 21:53 Clear 42 5.6 35 1.7 76 76 S 5 7 30.16 1022 10 16.0934 0 0
10:53 pm 22:53 Clear 42 5.6 35 1.7 76 76 S 5 7 30.17 1022 10 16.0934 0 0
11:53 pm 23:53 Clear 41 5 34 1.1 76 76 Calm 30.17 1022 10 16.0934 0 0

Powered by AerisWeather